[[{"header":{"parameterUnit":"m.s-1","parameterCategory":1,"la1":30.2991,"la2":30.254,"lo1":-89.0895,"lo2":-89.0444,"dy":0.0017,"dx":0.0017,"nx":28,"ny":28,"refTime":"2025-08-25T03:00:00:Z","depth":0,"parameterNumber":2,"parameterNumberName":"U-component_of_WINDS"},"data":[0,0,0,0,0,0,0,0,0,0,0,0,0,0,0,0,0,0,0,0,0,0,0,0,0,0,0,0,0,0,0,0,0,0,0,0,0,0,0,0,0,0,0,0,0,0,0,0,0,0,0,0,0,0,0,0,0,0,1.9241,1.9242,0,1.9408,1.941,1.9412,1.9473,1.9472,1.9472,1.9471,1.9642,1.9647,1.9652,0,0,0,0,0,0,0,0,0,0,0,0,0,1.897,1.8974,1.924,1.9242,1.9245,1.9408,1.941,1.9412,1.9473,1.9472,1.9472,1.9471,1.9641,1.9647,1.9653,0,0,0,0,0,0,0,0,0,0,0,0,0,1.9107,1.8976,1.924,1.9294,1.9301,1.9407,1.941,1.9413,1.9473,1.9472,1.9471,1.9471,1.9639,1.9646,1.9654,1.9718,0,0,1.9677,1.968,0,0,0,0,0,0,0,0,1.9099,1.9117,1.9284,1.9291,1.9298,1.9419,1.9378,1.9515,1.9473,1.9408,1.9471,1.947,1.9569,1.9582,1.9615,1.9726,1.9733,1.9678,1.9682,1.9685,1.9688,0,0,0,0,0,0,0,1.909,1.911,1.9307,1.9287,1.9295,1.931,1.9328,1.9404,1.9491,1.9413,1.9418,1.9437,1.9572,1.9608,1.962,1.9736,1.9677,1.9684,1.9689,1.9692,1.9904,1.9905,0,0,0,0,0,0,1.9071,1.9102,1.9301,1.9312,1.9195,1.9315,1.9336,1.9381,1.949,1.9506,1.9438,1.9439,1.9595,1.9611,1.9626,1.9707,1.9685,1.9693,1.9697,1.9903,1.9904,1.9906,0,0,0,0,0,0,1.9065,1.9089,1.9295,1.9208,1.9236,1.9321,1.9371,1.9385,1.942,1.9509,1.9524,1.9458,1.9595,1.9615,1.9694,1.9713,1.9696,1.9703,1.9902,1.9904,1.9905,1.9869,0,0,0,0,0,0,1.9057,1.9086,1.9112,1.9208,1.924,1.9361,1.9372,1.9389,1.9433,1.9437,1.9532,1.9547,1.9596,1.9682,1.9701,1.9724,1.9709,1.9901,1.9903,1.9905,1.9869,1.9869,1.9869,0,0,0,0,0,1.9047,1.9096,1.9113,1.9137,1.9275,1.9362,1.938,1.9435,1.9435,1.9461,1.9517,1.9544,1.9708,1.969,1.9712,1.9737,1.99,1.9902,1.9904,1.9869,1.9869,1.9869,0,0,0,0,0,0,1.9001,1.911,1.913,1.9212,1.9277,1.9372,1.9407,1.9434,1.9501,1.9502,1.9567,1.9588,1.9661,1.9707,1.9685,1.9803,1.9805,1.9812,1.977,1.9772,1.9772,1.9759,1.9715,0,0,0,0,0,1.9,1.9062,1.9154,1.9216,1.9248,1.9321,1.9362,1.9398,1.9469,1.9497,1.9559,1.9625,1.9692,1.9734,1.9801,1.9875,1.9896,1.9903,1.9903,1.9903,1.9908,1.9949,1.9952,1.9913,1.9913,1.9913,0,0,1.8999,1.9066,1.9101,1.9209,1.9264,1.9325,1.9344,1.941,1.9456,1.9507,1.9584,1.9632,1.971,1.9786,1.9823,1.9827,1.9923,1.9906,1.9905,1.9911,1.9952,1.9955,1.9958,1.9915,1.9915,1.9915,0,0,1.9028,1.9086,1.9143,1.9197,1.928,1.9328,1.9341,1.9432,1.9465,1.9544,1.9582,1.9638,1.9751,1.9805,1.9847,1.9893,1.9919,1.9912,1.9914,1.9953,1.9956,1.9959,1.9973,1.9978,1.9917,1.9917,1.9917,0,1.9016,1.9111,1.9169,1.9232,1.9277,1.9324,1.9382,1.9432,1.9531,1.9561,1.9563,1.9705,1.9761,1.9849,1.986,1.9893,1.9909,1.9902,1.9951,1.9954,1.9958,1.9973,1.9978,1.9916,1.9916,1.9916,1.9916,0,1.9091,1.9157,1.9193,1.9287,1.9336,1.9396,1.9461,1.9504,1.9535,1.9582,1.966,1.973,1.9809,1.9833,1.9865,1.9925,1.9924,1.9938,1.9942,1.9959,1.9974,1.998,1.9914,1.9914,1.9915,1.9915,0,0,1.9098,1.9221,1.9233,1.9275,1.9368,1.9419,1.948,1.9557,1.9592,1.9658,1.9709,1.9803,1.9815,1.9862,1.9901,1.9935,1.9964,1.9944,1.9947,1.9944,2.0032,2.0021,2.0027,1.9982,1.9983,1.9984,2.0025,0,1.9138,1.9249,1.9301,1.9388,1.9448,1.9493,1.9545,1.9607,1.9652,1.9708,1.9758,1.9822,1.9835,1.9863,1.9899,1.9953,1.9982,1.9951,2.0029,2.0031,2.0008,2.0035,2.0024,2.0059,2.0031,2.0032,2.0033,0,1.9201,1.9265,1.9358,1.9442,1.9469,1.9515,1.9589,1.9642,1.9713,1.9743,1.9794,1.9831,1.9894,1.9893,1.9981,1.9958,1.9993,2.0024,2.0027,2.0036,2.0033,2.0044,2.0072,2.0077,2.0043,2.0042,2.0042,0,1.9193,1.9304,1.9373,1.9408,1.9508,1.9539,1.9582,1.9651,1.9693,1.9758,1.9785,1.9856,1.9895,1.9948,2.0002,1.9996,2.0084,2.0088,2.011,2.0108,2.0126,2.0124,2.016,2.015,2.015,2.0149,2.0149,0,1.9232,1.9287,1.9371,1.9414,1.9475,1.9534,1.9593,1.9639,1.97,1.9751,1.9795,1.9842,1.991,1.9966,2.0008,2.0073,2.0091,2.0116,2.0127,2.0112,2.0109,2.0136,2.0134,2.0151,2.0151,2.015,2.015,0,1.9235,1.9294,1.9372,1.9459,1.9482,1.9523,1.9597,1.9639,1.9686,1.975,1.9768,1.9841,1.9908,1.9967,2.0056,2.0084,2.0151,2.0164,2.0127,2.0132,2.0151,2.0148,2.0204,2.0214,2.0197,2.0198,2.0198,0,1.9255,1.9298,1.9389,1.9426,1.9468,1.9528,1.9571,1.963,1.9672,1.9754,1.9786,1.9856,1.9915,2.002,2.008,2.0148,2.0163,2.0177,2.0173,2.0156,2.0161,2.0158,2.0162,2.0177,2.0177,2.0177,2.0177,0,1.9285,1.9312,1.9372,1.9442,1.9491,1.9549,1.9608,1.9636,1.9706,1.9751,1.982,1.9865,1.9955,2.0024,2.0097,2.0141,2.017,2.0178,2.0186,2.0171,2.0148,2.0159,2.0125,2.0176,2.0176,2.0176,2.0176,2.0176,1.9297,1.9336,1.9405,1.947,1.9521,1.9574,1.9617,1.9668,1.9727,1.9804,1.9835,1.9904,1.9971,2.0073,2.0116,2.0171,2.0176,2.0189,2.0192,2.0194,2.0191,2.0139,2.0185,2.0185,2.0185,2.0185,2.0185,0,1.9328,1.9374,1.9433,1.9514,1.9564,1.9587,1.9652,1.9693,1.9754,1.9814,1.987,1.9948,2.0014,2.0078,2.0148,2.0179,2.0194,2.0195,2.0193,2.0202,2.0183,2.0168,2.0181,2.0181,2.0181,2.0181,2.0181,2.0181,1.935,1.9416,1.945,1.9542,1.9588,1.9656,1.9691,1.974,1.9788,1.9873,1.9928,1.9969,2.0031,2.0104,2.0165,2.0182,2.0205,2.0202,2.0223,2.0204,2.0204,2.0203,2.019,2.0207,2.0207,2.0238,2.0238,2.0238]},{"header":{"parameterUnit":"m.s-1","parameterCategory":1,"la1":30.2991,"la2":30.254,"lo1":-89.0895,"lo2":-89.0444,"dy":0.0017,"dx":0.0017,"nx":28,"ny":28,"refTime":"2025-08-25T03:00:00:Z","depth":0,"parameterNumber":3,"parameterNumberName":"V-component_of_WINDS"},"data":[0,0,0,0,0,0,0,0,0,0,0,0,0,0,0,0,0,0,0,0,0,0,0,0,0,0,0,0,0,0,0,0,0,0,0,0,0,0,0,0,0,0,0,0,0,0,0,0,0,0,0,0,0,0,0,0,0,0,2.4042,2.4042,0,2.4027,2.4027,2.4027,2.3984,2.3983,2.3982,2.3981,2.3964,2.3965,2.3965,0,0,0,0,0,0,0,0,0,0,0,0,0,2.4032,2.4033,2.4042,2.4042,2.4042,2.4027,2.4027,2.4027,2.3984,2.3983,2.3982,2.3981,2.3964,2.3965,2.3965,0,0,0,0,0,0,0,0,0,0,0,0,0,2.4029,2.4033,2.4042,2.4019,2.4017,2.4027,2.4027,2.4026,2.3984,2.3983,2.3981,2.398,2.3964,2.3965,2.3965,2.3997,0,0,2.3967,2.3967,0,0,0,0,0,0,0,0,2.4029,2.4029,2.4022,2.402,2.4018,2.4006,2.4017,2.4017,2.3984,2.3996,2.3981,2.3979,2.3979,2.3978,2.3979,2.3996,2.3995,2.3967,2.3968,2.3968,2.3968,0,0,0,0,0,0,0,2.4029,2.403,2.4036,2.4022,2.402,2.4008,2.4006,2.4017,2.3996,2.3995,2.3992,2.3991,2.3978,2.3978,2.3978,2.3995,2.3967,2.3968,2.3968,2.3968,2.4035,2.4036,0,0,0,0,0,0,2.4033,2.403,2.4037,2.4036,2.402,2.401,2.4007,2.4011,2.3996,2.3992,2.3992,2.3989,2.3978,2.3977,2.3977,2.4011,2.3968,2.3969,2.3969,2.4034,2.4035,2.4037,0,0,0,0,0,0,2.4033,2.4034,2.4037,2.4032,2.4031,2.4011,2.4016,2.4012,2.4012,2.3993,2.3989,2.3997,2.3977,2.3976,2.3992,2.401,2.3969,2.3969,2.4032,2.4034,2.4036,2.4081,0,0,0,0,0,0,2.4033,2.4034,2.4047,2.4033,2.4032,2.4053,2.4017,2.4012,2.4013,2.4009,2.3996,2.3993,2.3976,2.3991,2.3992,2.401,2.397,2.403,2.4033,2.4036,2.4078,2.4084,2.409,0,0,0,0,0,2.4033,2.406,2.4048,2.4049,2.4047,2.4054,2.4054,2.4034,2.4015,2.4027,2.4014,2.3993,2.4008,2.3993,2.3994,2.4012,2.4029,2.4032,2.4035,2.4075,2.4083,2.409,0,0,0,0,0,0,2.4078,2.4058,2.4044,2.4068,2.4063,2.4047,2.4061,2.4043,2.4043,2.4039,2.4014,2.4011,2.403,2.4023,2.4006,2.4041,2.4015,2.4019,2.4045,2.4052,2.4058,2.4059,2.397,0,0,0,0,0,2.409,2.4098,2.408,2.4103,2.4101,2.4082,2.4084,2.4069,2.4063,2.406,2.4049,2.4043,2.4046,2.4049,2.4051,2.4077,2.4072,2.409,2.4096,2.4101,2.4104,2.4114,2.4121,2.4047,2.4047,2.4047,0,0,2.4116,2.4107,2.4113,2.4112,2.4106,2.4114,2.408,2.409,2.4095,2.4062,2.4075,2.4067,2.4059,2.4079,2.4087,2.4073,2.4123,2.4105,2.4109,2.4109,2.4118,2.4125,2.4131,2.4049,2.4049,2.4049,0,0,2.4168,2.4162,2.4179,2.4174,2.4166,2.4152,2.4156,2.4143,2.4136,2.4149,2.4123,2.4128,2.4135,2.4129,2.4128,2.4175,2.4155,2.4176,2.4208,2.4218,2.4224,2.4229,2.4244,2.425,2.418,2.418,2.418,0,2.4201,2.4212,2.419,2.4201,2.42,2.417,2.4187,2.4183,2.4176,2.4175,2.416,2.4166,2.4159,2.4176,2.4188,2.4188,2.419,2.4177,2.4225,2.423,2.4234,2.4248,2.4254,2.4182,2.4182,2.4182,2.4182,0,2.4252,2.426,2.4275,2.4268,2.4269,2.4283,2.4262,2.4266,2.425,2.4238,2.4251,2.4241,2.4239,2.4242,2.4228,2.4257,2.4248,2.423,2.4203,2.4244,2.4257,2.4262,2.4186,2.4185,2.4184,2.4184,0,0,2.4331,2.4311,2.4317,2.4312,2.4301,2.4306,2.4317,2.4316,2.4318,2.4314,2.4322,2.4328,2.431,2.4308,2.4292,2.4302,2.4337,2.4281,2.4281,2.429,2.4366,2.4378,2.4385,2.4324,2.4325,2.4326,2.4366,0,2.4378,2.4396,2.4377,2.4399,2.4405,2.4376,2.4385,2.4379,2.4367,2.437,2.4357,2.436,2.4338,2.4336,2.4344,2.4331,2.4351,2.4328,2.4329,2.433,2.4331,2.4392,2.4406,2.4444,2.4371,2.4372,2.4372,0,2.4435,2.4432,2.4455,2.444,2.4442,2.4451,2.4446,2.445,2.4441,2.4432,2.4429,2.4409,2.4418,2.4393,2.4404,2.4388,2.4388,2.4381,2.4382,2.438,2.4352,2.439,2.4456,2.4461,2.438,2.4379,2.4379,0,2.4487,2.449,2.4503,2.4501,2.4484,2.4491,2.4484,2.4474,2.4473,2.4469,2.4469,2.4466,2.4464,2.4462,2.4442,2.4426,2.4455,2.4429,2.4446,2.4447,2.4452,2.4452,2.4518,2.4455,2.4455,2.4455,2.4455,0,2.454,2.4555,2.4526,2.4535,2.4549,2.4526,2.4542,2.4532,2.4522,2.4527,2.4502,2.4507,2.4481,2.4483,2.4468,2.4478,2.4478,2.4469,2.4465,2.4471,2.4471,2.4469,2.4465,2.4457,2.4456,2.4456,2.4456,0,2.4601,2.4583,2.4595,2.4578,2.4574,2.4585,2.457,2.4576,2.4563,2.4569,2.4569,2.4548,2.4549,2.4529,2.4526,2.4515,2.4531,2.4523,2.4534,2.4531,2.4549,2.4546,2.4614,2.462,2.4555,2.4556,2.4557,0,2.4635,2.4645,2.4629,2.463,2.4625,2.4627,2.4627,2.4604,2.4604,2.4593,2.46,2.4599,2.4596,2.4598,2.4582,2.4579,2.4569,2.4593,2.4569,2.4573,2.4567,2.4566,2.4566,2.4598,2.4599,2.4599,2.46,0,2.4697,2.4687,2.4687,2.4683,2.4683,2.4679,2.4674,2.4676,2.4651,2.4652,2.4652,2.465,2.4646,2.4645,2.4638,2.463,2.461,2.4608,2.4611,2.4617,2.4622,2.4617,2.4546,2.4606,2.4605,2.4605,2.4605,2.4604,2.4744,2.4751,2.474,2.474,2.4733,2.4728,2.4733,2.472,2.472,2.4714,2.4701,2.4703,2.4692,2.4681,2.4675,2.4675,2.4663,2.4669,2.467,2.4671,2.4674,2.4623,2.4674,2.4674,2.4674,2.4674,2.4673,0,2.4803,2.4794,2.4794,2.4787,2.4787,2.4769,2.4761,2.4762,2.4764,2.4755,2.4753,2.4752,2.475,2.4734,2.4729,2.4732,2.4723,2.4732,2.4731,2.4729,2.4686,2.4682,2.4739,2.4739,2.4739,2.4739,2.4739,2.4739,2.4833,2.4843,2.4832,2.4838,2.4829,2.4831,2.4828,2.4822,2.4815,2.4815,2.4813,2.4803,2.479,2.4785,2.4781,2.4776,2.4775,2.4786,2.4778,2.4738,2.4732,2.4726,2.4722,2.4787,2.4787,2.4821,2.4821,2.4821]}]]